TimeCDT,TemperatureF,Dew PointF,Humidity,Sea Level PressureIn,VisibilityMPH,Wind Direction,Wind SpeedMPH,Gust SpeedMPH,PrecipitationIn,Events,Conditions,WindDirDegrees,DateUTC
12:15 AM,51.8,44.6,76,29.63,10.0,Calm,Calm,-,N/A,,Overcast,0,2013-04-08 05:15:00
12:35 AM,48.2,44.6,87,29.63,7.0,Calm,Calm,-,N/A,,Scattered Clouds,0,2013-04-08 05:35:00
12:55 AM,46.4,44.6,93,29.63,5.0,NE,3.5,-,N/A,,Mostly Cloudy,40,2013-04-08 05:55:00
1:15 AM,46.4,44.6,93,29.64,5.0,Calm,Calm,-,N/A,,Overcast,0,2013-04-08 06:15:00
1:35 AM,48.2,44.6,87,29.63,7.0,Calm,Calm,-,N/A,,Overcast,0,2013-04-08 06:35:00
1:55 AM,46.4,44.6,93,29.63,5.0,Calm,Calm,-,N/A,,Mostly Cloudy,0,2013-04-08 06:55:00
2:15 AM,44.6,42.8,93,29.63,4.0,Calm,Calm,-,N/A,,Scattered Clouds,0,2013-04-08 07:15:00
2:35 AM,42.8,41.0,93,29.63,2.5,Calm,Calm,-,N/A,,Clear,0,2013-04-08 07:35:00
2:55 AM,42.8,39.2,87,29.63,0.8,Calm,Calm,-,N/A,,Mist,0,2013-04-08 07:55:00
3:15 AM,39.2,37.4,93,29.63,0.2,Calm,Calm,-,N/A,Fog,Fog,0,2013-04-08 08:15:00
3:35 AM,37.4,37.4,100,29.63,0.2,Calm,Calm,-,N/A,Fog,Fog,0,2013-04-08 08:35:00
3:55 AM,37.4,37.4,100,29.63,0.2,Calm,Calm,-,N/A,Fog,Fog,0,2013-04-08 08:55:00
4:15 AM,37.4,35.6,93,29.63,0.2,Calm,Calm,-,N/A,Fog,Fog,0,2013-04-08 09:15:00
4:35 AM,35.6,35.6,100,29.63,0.2,Calm,Calm,-,N/A,Fog,Fog,0,2013-04-08 09:35:00
4:55 AM,35.6,33.8,93,29.63,0.2,Calm,Calm,-,N/A,Fog,Fog,0,2013-04-08 09:55:00
5:15 AM,35.6,35.6,100,29.63,0.2,Calm,Calm,-,N/A,Fog,Fog,0,2013-04-08 10:15:00
5:35 AM,35.6,33.8,93,29.62,0.2,Calm,Calm,-,N/A,Fog,Fog,0,2013-04-08 10:35:00
5:55 AM,35.6,35.6,100,29.62,0.2,Calm,Calm,-,N/A,Fog,Fog,0,2013-04-08 10:55:00
6:15 AM,35.6,33.8,93,29.62,0.2,Calm,Calm,-,N/A,Fog,Fog,0,2013-04-08 11:15:00
6:35 AM,35.6,33.8,93,29.62,0.2,Calm,Calm,-,N/A,Fog,Fog,0,2013-04-08 11:35:00
6:55 AM,35.6,33.8,93,29.64,0.2,Calm,Calm,-,N/A,Fog,Fog,0,2013-04-08 11:55:00
7:15 AM,35.6,35.6,100,29.65,0.2,Calm,Calm,-,N/A,Fog,Fog,0,2013-04-08 12:15:00
7:35 AM,35.6,35.6,100,29.66,0.2,Calm,Calm,-,N/A,Fog,Fog,0,2013-04-08 12:35:00
7:55 AM,37.4,35.6,93,29.66,0.2,Calm,Calm,-,N/A,Fog,Fog,0,2013-04-08 12:55:00
8:15 AM,37.4,37.4,100,29.67,0.2,Calm,Calm,-,N/A,Fog,Fog,0,2013-04-08 13:15:00
8:35 AM,39.2,37.4,93,29.67,0.2,Calm,Calm,-,N/A,Fog,Fog,0,2013-04-08 13:35:00
8:55 AM,41.0,39.2,93,29.67,0.2,NE,3.5,-,N/A,Fog,Fog,50,2013-04-08 13:55:00
9:15 AM,41.0,39.2,93,29.68,0.2,NE,3.5,-,N/A,Fog,Fog,50,2013-04-08 14:15:00
9:35 AM,42.8,42.8,100,29.70,0.2,NNE,4.6,-,N/A,Fog,Fog,30,2013-04-08 14:35:00
9:55 AM,44.6,42.8,93,29.69,0.5,ENE,5.8,-,N/A,Fog,Fog,60,2013-04-08 14:55:00
10:15 AM,46.4,46.4,100,29.69,2.5,NE,5.8,-,N/A,,Mostly Cloudy,50,2013-04-08 15:15:00
10:35 AM,50.0,48.2,94,29.69,7.0,NE,8.1,-,N/A,,Clear,50,2013-04-08 15:35:00
10:55 AM,55.4,48.2,77,29.69,7.0,NE,9.2,-,N/A,,Clear,50,2013-04-08 15:55:00
11:15 AM,57.2,48.2,72,29.69,10.0,ENE,10.4,-,N/A,,Clear,70,2013-04-08 16:15:00
11:35 AM,57.2,46.4,67,29.69,10.0,ENE,11.5,16.1,N/A,,Clear,70,2013-04-08 16:35:00
11:55 AM,60.8,46.4,59,29.70,10.0,ENE,6.9,-,N/A,,Clear,70,2013-04-08 16:55:00
12:15 PM,60.8,46.4,59,29.69,10.0,East,10.4,-,N/A,,Clear,90,2013-04-08 17:15:00
12:35 PM,62.6,46.4,55,29.70,10.0,East,9.2,-,N/A,,Clear,100,2013-04-08 17:35:00
12:55 PM,64.4,46.4,52,29.70,10.0,ESE,10.4,-,N/A,,Clear,110,2013-04-08 17:55:00
1:15 PM,64.4,46.4,52,29.69,10.0,SE,9.2,16.1,N/A,,Clear,130,2013-04-08 18:15:00
1:35 PM,66.2,44.6,46,29.69,10.0,ESE,11.5,-,N/A,,Clear,120,2013-04-08 18:35:00
1:55 PM,66.2,46.4,49,29.68,10.0,SSE,10.4,16.1,N/A,,Clear,150,2013-04-08 18:55:00
2:15 PM,68.0,46.4,46,29.69,10.0,SSE,11.5,16.1,N/A,,Clear,150,2013-04-08 19:15:00
2:35 PM,69.8,44.6,40,29.68,10.0,ESE,6.9,-,N/A,,Clear,120,2013-04-08 19:35:00
2:55 PM,69.8,44.6,40,29.68,10.0,ESE,6.9,-,N/A,,Clear,110,2013-04-08 19:55:00
3:15 PM,71.6,44.6,38,29.67,10.0,South,3.5,10.4,N/A,,Clear,170,2013-04-08 20:15:00
3:35 PM,73.4,42.8,33,29.67,10.0,South,10.4,-,N/A,,Scattered Clouds,180,2013-04-08 20:35:00
3:55 PM,71.6,42.8,35,29.67,10.0,SSE,3.5,-,N/A,,Clear,160,2013-04-08 20:55:00
4:15 PM,71.6,42.8,35,29.68,10.0,South,3.5,-,N/A,,Clear,170,2013-04-08 21:15:00
4:35 PM,73.4,41.0,31,29.67,10.0,East,3.5,-,N/A,,Clear,100,2013-04-08 21:35:00
4:55 PM,73.4,42.8,33,29.68,10.0,Calm,Calm,-,N/A,,Clear,0,2013-04-08 21:55:00
5:15 PM,73.4,42.8,33,29.68,10.0,ESE,6.9,-,N/A,,Scattered Clouds,110,2013-04-08 22:15:00
5:35 PM,71.6,44.6,38,29.69,10.0,ENE,15.0,19.6,N/A,,Clear,60,2013-04-08 22:35:00
5:55 PM,66.2,48.2,52,29.70,10.0,ENE,15.0,26.5,N/A,,Mostly Cloudy,60,2013-04-08 22:55:00
6:15 PM,62.6,48.2,59,29.71,7.0,NE,16.1,27.6,N/A,,Scattered Clouds,50,2013-04-08 23:15:00
6:35 PM,62.6,48.2,59,29.73,10.0,NE,17.3,31.1,N/A,,Clear,50,2013-04-08 23:35:00
6:55 PM,59.0,48.2,67,29.74,10.0,NE,17.3,24.2,N/A,,Clear,50,2013-04-08 23:55:00
7:15 PM,57.2,46.4,67,29.75,10.0,NE,16.1,27.6,N/A,,Clear,50,2013-04-09 00:15:00
7:35 PM,55.4,46.4,72,29.76,7.0,NE,18.4,26.5,N/A,,Clear,40,2013-04-09 00:35:00
7:55 PM,51.8,44.6,76,29.78,7.0,NE,21.9,29.9,N/A,,Scattered Clouds,40,2013-04-09 00:55:00
8:15 PM,50.0,44.6,82,29.79,7.0,NE,23.0,27.6,N/A,,Mostly Cloudy,50,2013-04-09 01:15:00
8:35 PM,48.2,44.6,87,29.80,7.0,NE,20.7,25.3,N/A,,Overcast,50,2013-04-09 01:35:00
8:55 PM,48.2,42.8,82,29.81,7.0,NE,16.1,26.5,N/A,,Overcast,50,2013-04-09 01:55:00
9:15 PM,48.2,42.8,82,29.83,5.0,ENE,18.4,26.5,N/A,,Haze,60,2013-04-09 02:15:00
9:35 PM,48.2,42.8,82,29.84,5.0,NE,18.4,28.8,N/A,,Haze,50,2013-04-09 02:35:00
9:55 PM,46.4,42.8,87,29.85,5.0,ENE,21.9,29.9,N/A,,Overcast,60,2013-04-09 02:55:00
10:15 PM,46.4,42.8,87,29.86,5.0,NE,16.1,26.5,N/A,,Overcast,50,2013-04-09 03:15:00
10:35 PM,46.4,42.8,87,29.86,5.0,NE,18.4,29.9,N/A,,Overcast,50,2013-04-09 03:35:00
10:55 PM,44.6,42.8,93,29.85,4.0,NE,24.2,31.1,N/A,,Overcast,50,2013-04-09 03:55:00
11:15 PM,44.6,42.8,93,29.83,5.0,NE,20.7,34.5,N/A,,Overcast,50,2013-04-09 04:15:00
11:35 PM,44.6,41.0,87,29.83,5.0,ENE,24.2,33.4,N/A,,Overcast,60,2013-04-09 04:35:00
11:55 PM,44.6,41.0,87,29.82,5.0,ENE,28.8,36.8,N/A,,Overcast,60,2013-04-09 04:55:00